Погода в Черемшанке

Россия / Красноярский край     53°52′49″N   93°44′07″E
темп.,
°C
ветер,
м/с
пор.,
м/с
влажн.,
%
обл.,
%
осадки,
мм/ч
давл.,
гПа
погр.,
м
15 мая, сб
сб1501:00+3з119693 0.4 102313
04:00+3юз0095100 0.0 102410
07:00+5ю1184100 0.0 1024140
10:00+10юз2557100 0.0 1024900
13:00+13юз3651100 0.0 10211549
16:00+12всв2264100 0.0 102162
19:00+9в2291100 1.1 102248
22:00+8вюв1194100 0.1 102114
16 мая, вс
вс1601:00+8вюв1195100 0.2 102033
04:00+8вюв1196100 0.1 101932
07:00+8вюв1197100 1.3 101931
10:00+10ююв2393100 1.3 1018295
13:00+11юв2393100 3.0 1017286
16:00+11юв2396100 0.6 1015110
19:00+11в2394100 0.6 1011153
22:00+9ю1199100 8.3 101123
17 мая, пн
пн1701:00+9ююз1199100 9.9 101019
04:00+10юз17100100 1.0 1010336
07:00+11зюз14100100 2.6 1009161
10:00+12сз129688 0.8 1010254
13:00+16зсз356451 1.7 10101504
16:00+16зсз3556100 0.1 10111448
19:00+12зсз3672100 0.1 1013343
22:00+7зсз119354 0.0 101611
18 мая, вт
вт1801:00+8сз0086100 0.0 101512
04:00+8вюв1187100 0.0 101411
07:00+9юв1285100 0.0 1011104
10:00+8ююв1398100 3.6 1009159
13:00+10ююз1599100 9.4 1006321
16:00+10з1299100 11.1 1006149
19:00+10всв1199100 15.7 100533
22:00+7з119840 0.1 100710
19 мая, ср
ср1901:00+7з1199100 0.1 100819
04:00+7юв1199100 0.0 100720
07:00+8в1299100 1.3 100484
10:00+9вюв1296100 0.6 1001161
13:00+10юв1198100 4.8 999154
16:00+9сз1199100 4.6 99759
19:00+6ссз2395100 6.8 1000249
22:00+5зсз1296100 0.0 1002110